Voltar ao catálogo

ERS 29

OV5-5

LostCiênciaHEO
NORAD 3950·PAYLOAD·🇺🇸 United States

Lançado May 23, 1969 de Cape Canaveral Space Force Station

Loading…

Próximas Passagens (próximas 24 horas)

TLE

ObsoletoSource: Space-Track

Época: Aug 16, 1970, 18:20 UTC

1  3950U 69046A   70228.76458333 -.00000733  00000-0  10000-3 0  9998
2  3950  33.9870 151.3720 6739400 198.9070 286.9198  0.46154007  1057

Acompanhe ERS 29 em tempo real com AllMySat

Download on the App Store